Dewpoint
27 27 28 29 30 29 29 31 32 32 33 33 33 34 35 37 38 41 46 45 45 47
26 27 29 30 30 31 30 32 33 33 33 33 33 33 36 38 40 41 44 46 46 46
26 27 29 30 30 30 31 33 35 34 34 34 33 33 34 34 35 36 39 42 45 46
26 27 29 28 29 30 31 32 34 35 35 35 35 34 34 34 37 38 40 41 44 46
26 26 26 27 28 29 31 32 33 35 34 34 35 34 34 35 36 37 38 39 42 46
25 26 27 27 28 30 31 32 32 33 33 33 35 35 36 36 37 38 39 40 40 44
24 25 26 28 29 29 31 32 32 32 33 34 34 34 34 35 35 35 36 37 40 40
23 24 26 27 28 29 30 31 32 32 32 33 34 35 34 34 34 35 35 37 38 39
23 23 24 26 26 28 29 30 31 32 32 32 33 36 37 36 35 35 36 34 34 34
23 23 24 25 26 27 28 29 30 30 31 32 34 38 38 37 34 34 34 34 34 34
24 24 24 24 25 26 28 28 28 29 30 30 33 34 34 33 31 31 31 32 32 32
25 25 24 24 25 26 27 27 28 29 29 30 31 33 32 30 29 28 28 30 31 31
26 25 24 25 25 28 28 28 27 27 29 30 30 33 32 30 28 26 27 29 30 31
20 21 21 23 25 26 28 27 27 26 26 29 30 31 32 30 27 26 25 25 26 29
Lifted_Index
12 11 11 11 11 11 11 10 11 12 13 13 13 12 12 12 13 12 11 10 10 10
12 12 12 11 11 11 10 10 11 12 13 14 13 13 12 12 12 12 11 10 10 10
12 12 13 12 11 10 10 10 11 12 13 13 14 13 13 12 11 12 12 11 10 9
13 13 13 13 12 11 10 10 11 12 12 13 14 13 13 12 12 12 12 11 9 8
13 14 13 13 12 11 10 10 10 11 11 12 13 13 12 12 12 12 12 11 9 8
13 14 13 13 12 11 10 10 10 10 11 11 12 12 12 12 12 12 12 11 9 7
14 14 14 14 13 11 11 10 9 9 10 11 11 12 13 13 13 12 12 11 9 7
14 15 15 14 13 12 11 10 9 8 9 10 11 11 12 12 12 12 12 11 8 7
14 14 15 14 13 12 11 10 9 7 7 7 8 9 10 10 10 10 10 9 8 6
13 14 14 14 14 13 12 11 10 8 6 6 6 7 8 8 8 9 9 8 6 5
13 13 13 13 13 13 12 12 11 9 8 7 6 6 7 7 7 7 7 7 6 6
13 13 13 13 13 13 12 12 12 11 10 9 8 8 8 7 7 7 8 8 8 7
13 13 13 13 13 12 12 12 12 12 11 11 10 10 10 9 8 8 8 9 9 9
14 14 14 13 12 12 12 12 11 11 12 12 12 11 10 10 9 8 9 9 10 10